Location: Heidgraben
(53.7081°N, 9.6576°E)
Time: 03:19:29
(UTC+00:00)

N. Korean satellite - Visible Passes

Search period start: 30 September 2020 00:00
Search period end: 10 October 2020 00:00
Orbit: 455 x 503 km, 97.2° (Epoch: 29 September)

Date Brightness Start Highest point End Pass type
(mag) Time Alt. Az. Time Alt. Az. Time Alt. Az.
30 Sep 8.1 04:41:30 10° NNE 04:45:00 42° E 04:48:25 10° S visible
01 Oct 9.4 04:15:50 10° NE 04:18:47 23° E 04:21:42 10° SSE visible
02 Oct 10.0 03:50:43 10° ENE 03:52:30 13° E 03:54:14 10° ESE visible
04 Oct 8.7 04:30:48 10° NNE 04:34:04 32° E 04:37:18 10° SSE visible
05 Oct 9.7 04:05:16 10° NE 04:07:49 18° E 04:10:20 10° SE visible
06 Oct 10.8 17:29:33 10° W 17:30:17 10° W 17:31:00 10° WNW visible
07 Oct 7.8 04:45:49 10° NNE 04:49:17 46° E 04:52:41 10° S visible
08 Oct 9.1 04:20:03 10° NE 04:23:04 25° E 04:26:01 10° SSE visible
09 Oct 9.9 03:54:46 10° NE 03:56:44 14° E 03:58:41 10° ESE visible
